Regional Weather Roundup
Issued by NWS

Home | Current Version | Previous Version | Text Only | Print | Product List | Glossary On
Versions: 1 2 3 4 5 6 7 8 9 10 11 12 13 14 15 16 17 18 19 20 21 22 23 24 25 26 27 28 29 30 31 32 33 34 35 36 37 38 39 40 41 42 43 44 45 46 47 48 49 50
000
ASUS44 KFWD 240015
RWRTX
NORTH TEXAS HOURLY WEATHER ROUNDUP
NATIONAL WEATHER SERVICE FORT WORTH TX
700 PM CDT WED MAY 23 2018

NOTE: "FAIR" INDICATES FEW OR NO CLOUDS BELOW 12,000 FEET WITH NO
SIGNIFICANT WEATHER AND/OR OBSTRUCTIONS TO VISIBILITY.

TXZ118-119-240100-
DALLAS/FORT WORTH METROPLEX

CITY           SKY/WX    TMP DP  RH WIND       PRES   REMARKS
DFW AIRPORT    FAIR      88  63  43 SE10      29.96S
6HR MIN TEMP:  85; 6HR MAX TEMP:  91;

DALLAS LOVE    FAIR      90  63  40 S12       29.96F HX  91
6HR MIN TEMP:  86; 6HR MAX TEMP:  92;

FTW MEACHAM    FAIR      90  65  43 S12       29.96F HX  92
6HR MIN TEMP:  88; 6HR MAX TEMP:  93;

DAL-EXECUTIVE  FAIR      88  65  46 SE12      29.96F HX  90
6HR MIN TEMP:  87; 6HR MAX TEMP:  91;

FTW-ALLIANCE   FAIR      88  62  41 SE10G20   29.96F
6HR MIN TEMP:  86; 6HR MAX TEMP:  91;

FTW-SPINKS     MOSUNNY   86  66  51 SE6       29.98F
ARLINGTON      FAIR      87  66  49 SE10      29.97F
6HR MIN TEMP:  85; 6HR MAX TEMP:  89;

GRAND PRAIRIE  SUNNY     88  63  42 SE6       29.98F
MESQUITE       SUNNY     88  64  45 SE9       29.98F
LANCASTER      FAIR      88  64  45 S8        29.98F
6HR MIN TEMP:  85; 6HR MAX TEMP:  89;

$$

TXZ091>094-102>105-117-120-121-131>134-240100-
NORTH CENTRAL TEXAS

CITY           SKY/WX    TMP DP  RH WIND       PRES   REMARKS
SHRMAN/DENISON FAIR      83  67  58 E8        30.00S
6HR MIN TEMP:  82; 6HR MAX TEMP:  91;

GAINESVILLE    FAIR      86  64  47 S8        30.00S
6HR MIN TEMP:  84; 6HR MAX TEMP:  88;

BOWIE          FAIR      85  65  50 SE6       29.99S
6HR MIN TEMP:  83; 6HR MAX TEMP:  88;

BRIDGEPORT     FAIR      87  61  41 S9        29.99S
6HR MIN TEMP:  86; 6HR MAX TEMP:  90;

DECATUR        FAIR      87  63  44 SE7       29.98F
6HR MIN TEMP:  85; 6HR MAX TEMP:  89;

DENTON         FAIR      88  64  44 S12       29.97S
6HR MIN TEMP:  85; 6HR MAX TEMP:  91;

MCKINNEY       FAIR      88  64  44 S12       29.98S
6HR MIN TEMP:  86; 6HR MAX TEMP:  90;

BONHAM         FAIR      82  71  69 NE7       29.99F
6HR MIN TEMP:  80; 6HR MAX TEMP:  88;

GREENVILLE     FAIR      90  64  43 SW5       29.99S HX  91
ROCKWALL       FAIR      88  66  48 S6        29.98F HX  90
6HR MIN TEMP:  85; 6HR MAX TEMP:  90;

TERRELL        FAIR      89  64  43 S9        29.98F HX  90
6HR MIN TEMP:  86; 6HR MAX TEMP:  91;

WAXAHACHIE     FAIR      87  67  52 SE7       29.98F
6HR MIN TEMP:  84; 6HR MAX TEMP:  89;

CLEBURNE       FAIR      86  68  54 SE9       29.99F
GRANBURY       FAIR      89  60  36 E13       29.98F
6HR MIN TEMP:  87; 6HR MAX TEMP:  91;

$$

TXZ083>090-098>101-113>116-127>130-139>142-154-155-240100-
WESTERN NORTH TEXAS

CITY           SKY/WX    TMP DP  RH WIND       PRES   REMARKS
WICHITA FALLS  FAIR      86  64  47 SE16      29.95F
6HR MIN TEMP:  85; 6HR MAX TEMP:  89;

WF-KICKAPOO    FAIR      88  65  47 SE13G22   29.98S HX  90
6HR MIN TEMP:  85; 6HR MAX TEMP:  90;

VERNON         FAIR      90  61  37 SE16      29.95F HX  90
6HR MIN TEMP:  62; 6HR MAX TEMP:  91;

ABILENE        FAIR      88  57  34 SE21      29.95F
6HR MIN TEMP:  84; 6HR MAX TEMP:  90;

ABILENE-DYESS  FAIR      87  53  30 SE12      29.95S
6HR MIN TEMP:  87; 6HR MAX TEMP:  92;

GRAHAM         FAIR      88  63  42 SE9G18    29.95S
BRECKENRIDGE   FAIR      90  55  30 SE14G22   29.95F
6HR MIN TEMP:  89; 6HR MAX TEMP:  94;

CISCO          FAIR      88  61  40 SE17G23   29.98F
EASTLAND       FAIR      86  61  42 SE10G18   29.97F
6HR MIN TEMP:  85; 6HR MAX TEMP:  91;

RANGER         FAIR      86  61  42 SE14      29.98F
6HR MIN TEMP:  85; 6HR MAX TEMP:  89;

MINERAL WELLS  FAIR      87  62  43 SE8       29.96F
6HR MIN TEMP:  85; 6HR MAX TEMP:  90;

STEPHENVILLE   FAIR      86  61  42 SE9       30.01F
6HR MIN TEMP:  83; 6HR MAX TEMP:  88;

COMANCHE       FAIR      85  64  47 SE12G21   29.98F
6HR MIN TEMP:  85; 6HR MAX TEMP:  90;

BROWNWOOD      LGT RAIN  88  59  37 SE15      29.96F
COLEMAN        FAIR      91  54  28 SE14      29.96F
6HR MIN TEMP:  85; 6HR MAX TEMP:  93;

BRADY          FAIR      88  57  35 SE9G16    29.97F
$$

TXZ143>147-156>162-174-175-240100-
CENTRAL TEXAS

CITY           SKY/WX    TMP DP  RH WIND       PRES   REMARKS
WACO           CLOUDY    83  66  56 S21G28    29.97S
6HR MIN TEMP:  83; 6HR MAX TEMP:  91;

WACO-TSTC      PTSUNNY   82  66  57 S6        29.97F
WACO-MCGREGOR  FAIR      81  70  69 SE15G21   29.98F
6HR MIN TEMP:  81; 6HR MAX TEMP:  92;

HILLSBORO      FAIR      85  69  58 E7        29.97F
6HR MIN TEMP:  83; 6HR MAX TEMP:  89;

CORSICANA      FAIR      87  66  49 SE9       29.98
6HR MIN TEMP:  86; 6HR MAX TEMP:  90;

MEXIA          FAIR      80  66  61 S8        29.98F
6HR MIN TEMP:  78; 6HR MAX TEMP:  89;

HEARNE         FAIR      82  69  64 SE7       29.98F
6HR MIN TEMP:  82; 6HR MAX TEMP:  90;

CAMERON        FAIR      82  68  63 S5        29.97F
6HR MIN TEMP:  79; 6HR MAX TEMP:  90;

TEMPLE         FAIR      83  69  62 SE14      29.98F
6HR MIN TEMP:  82; 6HR MAX TEMP:  88;

KILLEEN        FAIR      82  68  61 SE15      29.97F
6HR MIN TEMP:  82; 6HR MAX TEMP:  87;

KILLEEN-SKYLRK FAIR      84  68  58 SE14G22   29.98F
6HR MIN TEMP:  84; 6HR MAX TEMP:  90;

FORT HOOD      FAIR      83  67  57 SE14      29.94F
6HR MIN TEMP:  83; 6HR MAX TEMP:  89;

GATESVILLE     FAIR      86  66  51 VRB7G13   29.99F
HAMILTON       FAIR      86  64  47 SE12G17   29.99F
6HR MIN TEMP:  83; 6HR MAX TEMP:  88;

LAMPASAS       FAIR      83  66  55 SE12G20   29.97F
6HR MIN TEMP:  82; 6HR MAX TEMP:  89;

$$

TXZ095>097-106>112-122>126-135>138-148>153-164>167-240100-
EAST TEXAS

CITY           SKY/WX    TMP DP  RH WIND       PRES   REMARKS
PARIS          FAIR      79  66  65 E3        30.02S
6HR MIN TEMP:  79; 6HR MAX TEMP:  91;

SULPHUR SPRNGS FAIR      84  63  48 E9        30.01F
6HR MIN TEMP:  81; 6HR MAX TEMP:  93;

MOUNT PLEASANT FAIR      79  75  87 CALM      30.02S
6HR MIN TEMP:  79; 6HR MAX TEMP:  90;

GILMER         FAIR      80  72  77 CALM      30.01R
6HR MIN TEMP:  78; 6HR MAX TEMP:  90;

MINEOLA        FAIR      86  70  58 E3        30.00R HX  90
TYLER          PTSUNNY   89  63  41 W8        29.98F HX  90
6HR MIN TEMP:  88; 6HR MAX TEMP:  92;

LONGVIEW       TSTM      78  70  76 W12       30.01R
6HR MIN TEMP:  78; 6HR MAX TEMP:  92; 6HR PCP:  0.01;

MARSHALL       FAIR      85  64  49 CALM      30.02F
6HR MIN TEMP:  73; 6HR MAX TEMP:  85; 6HR PCP:  0.18;

ATHENS         FAIR      88  64  45 S10G18    29.98R
PALESTINE      FAIR      84  65  51 S7        30.00S
JACKSONVILLE   FAIR      83  65  55 S6        30.03S
HENDERSON      FAIR      78  74  87 CALM      30.02R
6HR MIN TEMP:  75; 6HR MAX TEMP:  92;

CENTER         FAIR      77  65  67 CALM      30.03R
6HR MIN TEMP:  77; 6HR MAX TEMP:  91;

NACOGDOCHES      N/A     83  65  54 SE5       30.00F
6HR MIN TEMP:  80; 6HR MAX TEMP:  92;

LUFKIN         FAIR      84  67  56 S7        30.00S
6HR MIN TEMP:  80; 6HR MAX TEMP:  90; 6HR PCP: TRACE;

$$

SUPPLEMENTAL OBSERVATIONS (NWS FORT WORTH AREA)

CITY           SKY/WX    TMP DP  RH WIND       PRES   REMARKS
DENISON DAM      N/A     84  64  51 SE5         N/A
CADDO GRASSLND   N/A     81  70  69 NE2G10      N/A


USA.gov is the U.S. government's official web portal to all federal, state and local government web resources and services.